This demonstration page uses our WeatherBlox Daily Observations layout. Learn more.

39.92423, -83.80882

Hourly Observations for May 31, 2019

Temp ( °F °C ) Dew Point ( °F °C ) Humidity (%) Winds ( mph kmh ) Pressure ( in mb ) Visibility ( mi km ) Precip ( " mm )
12:56 am 00:56 Clear 60 15.6 60 15.6 100 100 Calm 29.84 1011 10 16.0934 0 0
1:56 am 01:56 Clear 60 15.6 60 15.6 100 100 NNW 3 6 29.84 1010 10 16.0934 0 0
2:56 am 02:56 Clear 61 16.1 60 15.6 97 97 W 9 15 29.85 1011 10 16.0934 0 0
3:56 am 03:56 Cloudy with Light Rain 60 15.6 60 15.6 100 100 Calm 29.82 1010 10 16.0934 0.01 0.254
4:56 am 04:56 Mostly Cloudy 60 15.6 60 15.6 100 100 NE 8 13 29.82 1010 10 16.0934 0 0.0254
5:56 am 05:56 Mostly Cloudy 60 15.6 60 15.6 100 100 N 9 15 29.85 1011 9 14.48406 0.01 0.254
6:56 am 06:56 Mostly Sunny 61 16.1 61 16.1 100 100 N 8 13 29.87 1011 10 16.0934 0 0
7:56 am 07:56 Sunny 63 17.2 61 16.1 93 93 Calm 29.88 1012 10 16.0934 0 0
8:56 am 08:56 Mostly Sunny 67 19.4 62 16.7 84 84 Calm 29.88 1012 10 16.0934 0 0
9:56 am 09:56 Mostly Sunny 68 20 62 16.7 81 81 Calm 29.88 1012 10 16.0934 0 0
10:56 am 10:56 Mostly Sunny 71 21.7 63 17.2 76 76 Calm 29.89 1012 10 16.0934 0 0
11:25 am 11:25 Mostly Cloudy 73 23 64 18 74 74 Calm 29.86 1011 10 16.0934 0 0
11:52 am 11:52 Mostly Cloudy 73 23 64 18 74 74 E 3 6 29.86 1011 10 16.0934 0 0
11:56 am 11:56 Mostly Cloudy 74 23.3 64 17.8 71 71 Calm 29.88 1012 10 16.0934 0 0
12:10 pm 12:10 Mostly Cloudy 72 22 63 17 73 73 NNW 3 6 29.86 1011 10 16.0934 0 0
12:22 pm 12:22 Cloudy with Nearby Thunderstorms 72 22 64 18 78 78 NW 5 7 29.86 1011 10 16.0934 0 0
12:45 pm 12:45 Mostly Cloudy with Thunderstorms 72 22 66 19 83 83 SSE 14 22 29.85 1011 8 12.87472 0 0
12:56 pm 12:56 Mostly Cloudy with Thunderstorms 69 20.6 63 17.2 81 81 S 5 7 29.89 1012 10 16.0934 0 0
1:03 pm 13:03 Mostly Cloudy with Heavy Thunderstorms 64 18 59 15 83 83 NW 18 30 29.91 1013 2 3.21868 0 0.0254
1:10 pm 13:10 Cloudy with Heavy Thunderstorms 63 17 59 15 88 88 ESE 12 19 29.89 1012 1.5 2.41401 0.03 0.762
1:14 pm 13:14 Cloudy with Heavy Thunderstorms 63 17 61 16 94 94 SE 14 22 29.88 1012 2 3.21868 0.04 1.016
1:23 pm 13:23 Cloudy with Thunderstorms 63 17 57 14 83 83 SE 13 20 29.88 1012 7 11.26538 0.06 1.524
1:30 pm 13:30 Cloudy with Heavy Thunderstorms 63 17 57 14 83 83 S 9 15 29.89 1012 10 16.0934 0.08 2.032
1:56 pm 13:56 Cloudy with Nearby Thunderstorms 63 17.2 58 14.4 84 84 Calm 29.9 1013 10 16.0934 0.15 3.81
2:16 pm 14:16 Mostly Cloudy with Light Rain 63 17 61 16 94 94 SSE 5 7 29.88 1012 10 16.0934 0.06 1.524
2:56 pm 14:56 Partly Cloudy 62 16.7 61 16.1 96 96 ESE 5 7 29.89 1012 10 16.0934 0.16 4.064
3:56 pm 15:56 Mostly Sunny 70 21.1 63 17.2 79 79 S 8 13 29.89 1012 10 16.0934 0.14 3.556
4:56 pm 16:56 Partly Cloudy 72 22.2 65 18.3 79 79 WSW 9 15 29.87 1012 10 16.0934 0.13 3.302
5:56 pm 17:56 Sunny 71 21.7 65 18.3 81 81 WSW 10 17 29.88 1012 10 16.0934 0.08 2.032
6:56 pm 18:56 Sunny 71 21.7 66 18.9 84 84 WSW 9 15 29.87 1012 10 16.0934 0 0
7:56 pm 19:56 Mostly Cloudy 69 20.6 62 16.7 78 78 W 7 11 29.88 1012 10 16.0934 0 0
8:56 pm 20:56 Sunny 66 18.9 63 17.2 90 90 SSW 3 6 29.88 1012 9 14.48406 0 0
9:56 pm 21:56 Clear 64 17.8 63 17.2 96 96 SW 3 6 29.89 1012 10 16.0934 0 0
10:56 pm 22:56 Clear 63 17.2 63 17.2 100 100 SW 3 6 29.9 1012 10 16.0934 0 0
11:56 pm 23:56 Clear 62 16.7 62 16.7 100 100 Calm 29.89 1012 10 16.0934 0 0

Powered by AerisWeather